Location: Newark
(51.0500°N, 12.4500°E)
Time: 14:10:08
(UTC+00:00)

Vanguard 1 - Pass Details

Date: 19 February 2020
Orbit: 649 x 3833 km, 34.2° (Epoch: 07 April)

Event Time Altitude Azimuth Distance (km) Brightness Sun altitude
Rises 04:57:56 0° 181° (S) 7,958 14.7 -13.0°
Reaches altitude 10° 05:09:23 10° 157° (SSE) 6,642 14.7 -11.2°
Maximum altitude 05:15:42 12° 139° (SE) 6,122 14.8 -10.2°
Drops below altitude 10° 05:21:23 10° 121° (ESE) 5,905 15.2 -9.3°
Sets 05:29:34 0° 96° (E) 6,176 16.7 -8.0°
